Location: Home
(42.5358°N, 72.7383°W)
Time: 13:56:47
(UTC-05:00)

deb Explorer IX - Pass Details

Date: 02 December 2021
Orbit: 544 x 1082 km, 38.8° (Epoch: 16 January)

Event Time Altitude Azimuth Distance (km) Brightness Sun altitude
Rises 16:13:54 0° 265° (W) 2,702 ? -0.1°
Reaches altitude 10° 16:17:29 10° 232° (SW) 1,842 ? -0.7°
Maximum altitude 16:18:59 12° 211° (SSW) 1,757 ? -0.9°
Drops below altitude 10° 16:20:32 10° 189° (S) 1,895 ? -1.2°
Sets 16:24:22 0° 158° (SSE) 2,894 ? -1.8°
